User: anonymous   Login
Location: Unspecified
(0.0000°N, 0.0000°E)
Time: 06:43:20
(UTC+00:00)
Language:

Cosmos 1707 - Orbit

View from above orbital plane
View from above orbital plane
View from above satellite
View from above satellite

Ground track
Ground track

The orbit data is extracted from the following two-line orbital elements,

1 16326U 85113A   18173.59287750 -.00000023 +00000-0 -30610-5 0  9991
2 16326 082.5105 204.3531 0012293 100.9734 259.2881 15.13725436773098
Epoch (UTC): 22 June 2018 14:13:44
Eccentricity: 0.0012293
inclination: 82.5105°
perigee height: 516 km
apogee height: 533 km
right ascension of ascending node: 204.3531°
argument of perigee: 100.9734°
revolutions per day: 15.13725436
mean anomaly at epoch: 259.2881°
orbit number at epoch: 77309

The dashed part of the orbit path shows where the satellite is in the earth's shadow,  

DLR